User: anonymous   Login
Location: Unspecified
(0.0000°N, 0.0000°E)
Time: 06:48:44
(UTC+00:00)
Language:

CZ-4 DEB - Orbit

View from above orbital plane
View from above orbital plane
View from above satellite
View from above satellite

Ground track
Ground track

The orbit data is extracted from the following two-line orbital elements,

1 34223U 02024H   24172.88035535  .00000796  00000-0  49706-3 0  9996
2 34223  99.1465 211.1530 0130318 213.2856 146.0065 14.03663155109383
Epoch (UTC): 20 June 2024 21:07:42
Eccentricity: 0.0130318
inclination: 99.1465°
perigee height: 786 km
apogee height: 976 km
right ascension of ascending node: 211.1530°
argument of perigee: 213.2856°
revolutions per day: 14.03663155
mean anomaly at epoch: 146.0065°
orbit number at epoch: 10938

The dashed part of the orbit path shows where the satellite is in the earth's shadow,  

DLR